User: anonymous   Login
Location: Gwatt
(46.7204°N, 7.6223°E)
Time: 00:45:21
(UTC+00:00)
Language:

Tiros 1 despin weight - Orbit

View from above orbital plane
View from above orbital plane
View from above satellite
View from above satellite

Ground track
Ground track

The orbit data is extracted from the following two-line orbital elements,

1 00115U 60002D   21138.09635378 -.00000001  00000-0  26901-4 0  9995
2 00115  48.1660 104.8685 0035250 284.0858  75.6138 14.83764088241507
Epoch (UTC): 18 May 2021 02:18:44
Eccentricity: 0.0035250
inclination: 48.1660°
perigee height: 593 km
apogee height: 642 km
right ascension of ascending node: 104.8685°
argument of perigee: 284.0858°
revolutions per day: 14.83764088
mean anomaly at epoch: 75.6138°
orbit number at epoch: 24150

The dashed part of the orbit path shows where the satellite is in the earth's shadow,  

DLR